GW1242 Weather Reports


Display with metric or nautical units.
time (UTC)temp
F
wind
direction
speed
MPH
gust
MPH
rain 1hr
in
rain 24hr
in
rain mn
in
humidity
%
barometer
mb
20260509054540 41 247 0.0 1.0 0.00 0.00 0.00 92 1108.0
20260509053031 41 247 0.0 0.0 0.00 0.00 0.00 92 1108.2
20260509051529 41 247 0.0 0.0 0.00 0.00 0.00 91 1108.3
20260509050030 41 247 0.0 0.0 0.00 0.00 0.00 91 1108.6
20260509044615 42 247 0.0 0.0 0.00 0.00 0.00 90 1108.7
20260509043040 42 247 0.0 0.0 0.00 0.00 0.00 90 1108.8
20260509040038 43 247 0.0 0.0 0.00 0.00 0.00 89 1108.8
20260509034538 43 247 0.0 0.0 0.00 0.00 0.00 88 1108.9
20260509033115 44 247 0.0 0.0 0.00 0.00 0.00 87 1109.1
20260509031531 44 247 0.0 0.0 0.00 0.00 0.00 86 1109.1
20260509030111 45 247 0.0 0.0 0.00 0.00 0.00 85 1109.2
20260509024538 46 247 0.0 0.0 0.00 0.00 0.00 84 1109.3
20260509023039 46 247 0.0 0.0 0.00 0.00 0.00 83 1109.2
20260509021531 47 247 0.0 0.0 0.00 0.00 0.00 81 1109.2
20260509020114 48 247 0.0 0.0 0.00 0.00 0.00 80 1109.1
20260509014539 49 247 0.0 0.0 0.00 0.00 0.00 78 1109.0
20260509013031 50 247 0.0 0.0 0.00 0.00 0.00 74 1108.9
20260509011541 52 247 0.0 0.0 0.00 0.00 0.00 71 1109.0
20260509003031 61 247 0.0 0.0 0.00 0.00 0.00 50 1108.7
20260509000052 70 270 0.0 1.0 0.00 0.00 0.00 42 1108.4
20260508234606 0 0 0.0 0.0 0.00 0.00 0.00 100
20260508120033 36 225 0.0 0.0 0.00 0.00 0.00 97 1113.7
20260508114540 35 225 0.0 0.0 0.00 0.00 0.00 97 1113.4
20260508113039 34 225 0.0 0.0 0.00 0.00 0.00 97 1113.1
20260508111541 33 225 0.0 0.0 0.00 0.00 0.00 96 1112.8
20260508110030 33 225 0.0 0.0 0.00 0.00 0.00 96 1112.6
20260508104540 33 225 0.0 0.0 0.00 0.01 0.00 96 1112.6
20260508103107 34 225 0.0 0.0 0.00 0.01 0.00 96 1112.4
20260508101532 34 225 0.0 0.0 0.00 0.01 0.00 96 1112.2
20260508100040 34 225 0.0 0.0 0.00 0.01 0.00 96 1112.1
20260508093039 35 225 0.0 0.0 0.00 0.01 0.00 96 1112.0
20260508091539 36 225 0.0 0.0 0.00 0.02 0.00 96 1111.9
20260508090051 36 225 0.0 0.0 0.00 0.02 0.00 96 1112.0
20260508084615 37 225 0.0 0.0 0.00 0.02 0.00 96 1111.9
20260508081539 37 225 0.0 0.0 0.00 0.02 0.00 96 1112.0
20260508080144 38 225 0.0 0.0 0.00 0.02 0.00 95 1112.0
20260508074644 38 225 0.0 0.0 0.00 0.02 0.00 95 1112.0
20260508073052 38 225 0.0 0.0 0.00 0.02 0.00 95 1112.0
20260508071540 39 225 0.0 0.0 0.00 0.02 0.00 95 1112.1
20260508064532 40 225 0.0 0.0 0.00 0.02 0.00 95 1112.1
20260508061532 40 225 0.0 0.0 0.00 0.02 0.00 95 1112.3
20260508060040 41 225 0.0 0.0 0.00 0.02 0.00 94 1112.2